Time,TemperatureF,DewpointF,PressureIn,WindDirection,WindDirectionDegrees,WindSpeedMPH,WindSpeedGustMPH,Humidity,HourlyPrecipIn,Conditions,Clouds,dailyrainin,SoftwareType,DateUTC
2013-07-03 00:03:00,71.6,71.0,30.13,SSE,163,0.0,2.0,97,0.00,,,0.00,weatherlink.com 1.10,2013-07-03 04:03:00,
2013-07-03 00:18:00,71.7,71.0,30.13,South,170,2.0,5.0,97,0.00,,,0.00,weatherlink.com 1.10,2013-07-03 04:18:00,
2013-07-03 00:34:00,71.7,71.0,30.12,SSW,213,0.0,7.0,97,0.00,,,0.00,weatherlink.com 1.10,2013-07-03 04:34:00,
2013-07-03 00:48:00,71.7,71.0,30.12,South,178,2.0,8.0,97,0.00,,,0.00,weatherlink.com 1.10,2013-07-03 04:48:00,
2013-07-03 01:03:00,71.7,71.0,30.12,SSE,159,2.0,5.0,97,0.00,,,0.00,weatherlink.com 1.10,2013-07-03 05:03:00,
2013-07-03 01:18:00,71.8,71.0,30.12,SE,145,0.0,7.0,98,0.00,,,0.00,weatherlink.com 1.10,2013-07-03 05:18:00,
2013-07-03 01:33:00,71.9,71.0,30.12,SE,144,4.0,5.0,98,0.00,,,0.00,weatherlink.com 1.10,2013-07-03 05:33:00,
2013-07-03 01:48:00,72.0,71.0,30.12,South,189,1.0,5.0,98,0.00,,,0.00,weatherlink.com 1.10,2013-07-03 05:48:00,
2013-07-03 02:03:00,72.1,72.0,30.11,SE,138,3.0,4.0,98,0.00,,,0.00,weatherlink.com 1.10,2013-07-03 06:03:00,
2013-07-03 02:19:00,72.0,71.0,30.11,South,176,2.0,6.0,98,0.00,,,0.00,weatherlink.com 1.10,2013-07-03 06:19:00,
2013-07-03 02:34:00,72.0,71.0,30.11,South,186,6.0,8.0,98,0.00,,,0.00,weatherlink.com 1.10,2013-07-03 06:34:00,
2013-07-03 02:49:00,72.0,71.0,30.10,South,182,2.0,8.0,98,0.00,,,0.00,weatherlink.com 1.10,2013-07-03 06:49:00,
2013-07-03 03:19:00,72.0,71.0,30.11,SSE,148,3.0,8.0,98,0.00,,,0.00,weatherlink.com 1.10,2013-07-03 07:19:00,
2013-07-03 03:34:00,72.1,72.0,30.11,SSE,167,2.0,6.0,98,0.00,,,0.00,weatherlink.com 1.10,2013-07-03 07:34:00,
2013-07-03 04:19:00,72.1,72.0,30.11,SE,137,3.0,6.0,98,0.00,,,0.00,weatherlink.com 1.10,2013-07-03 08:19:00,
2013-07-03 04:34:00,72.1,72.0,30.11,South,182,0.0,6.0,98,0.00,,,0.00,weatherlink.com 1.10,2013-07-03 08:34:00,
2013-07-03 04:49:00,72.1,72.0,30.11,SSE,153,4.0,5.0,98,0.00,,,0.00,weatherlink.com 1.10,2013-07-03 08:49:00,
2013-07-03 05:04:00,72.1,72.0,30.11,ESE,123,1.0,8.0,98,0.00,,,0.00,weatherlink.com 1.10,2013-07-03 09:04:00,
2013-07-03 05:19:00,72.1,72.0,30.12,South,190,1.0,6.0,98,0.00,,,0.00,weatherlink.com 1.10,2013-07-03 09:19:00,
2013-07-03 05:34:00,72.1,72.0,30.12,SW,215,7.0,7.0,98,0.00,,,0.00,weatherlink.com 1.10,2013-07-03 09:34:00,
2013-07-03 06:04:00,72.2,72.0,30.13,South,182,0.0,3.0,98,0.00,,,0.00,weatherlink.com 1.10,2013-07-03 10:04:00,
2013-07-03 06:19:00,72.2,72.0,30.14,South,179,2.0,3.0,98,0.00,,,0.00,weatherlink.com 1.10,2013-07-03 10:19:00,
2013-07-03 06:34:00,72.2,72.0,30.14,SE,128,0.0,4.0,98,0.00,,,0.00,weatherlink.com 1.10,2013-07-03 10:34:00,
2013-07-03 06:49:00,72.3,72.0,30.14,South,169,2.0,8.0,98,0.01,,,0.01,weatherlink.com 1.10,2013-07-03 10:49:00,
2013-07-03 07:04:00,72.4,72.0,30.15,South,177,1.0,4.0,98,0.01,,,0.01,weatherlink.com 1.10,2013-07-03 11:04:00,
2013-07-03 08:04:00,73.3,73.0,30.17,South,173,0.0,7.0,98,0.00,,,0.01,weatherlink.com 1.10,2013-07-03 12:04:00,
2013-07-03 08:19:00,73.4,73.0,30.18,South,174,1.0,6.0,98,0.00,,,0.01,weatherlink.com 1.10,2013-07-03 12:19:00,
2013-07-03 08:34:00,73.6,73.0,30.18,South,171,2.0,7.0,98,0.00,,,0.01,weatherlink.com 1.10,2013-07-03 12:34:00,
2013-07-03 09:04:00,74.0,73.0,30.18,South,182,1.0,7.0,98,0.00,,,0.01,weatherlink.com 1.10,2013-07-03 13:04:00,
2013-07-03 09:19:00,74.4,74.0,30.18,SE,126,3.0,8.0,98,0.00,,,0.01,weatherlink.com 1.10,2013-07-03 13:19:00,
2013-07-03 09:34:00,74.8,74.0,30.18,ESE,120,1.0,8.0,98,0.00,,,0.01,weatherlink.com 1.10,2013-07-03 13:34:00,
2013-07-03 09:49:00,74.9,74.0,30.18,SSE,153,2.0,7.0,98,0.00,,,0.01,weatherlink.com 1.10,2013-07-03 13:49:00,
2013-07-03 10:04:00,75.0,74.0,30.17,SSW,198,1.0,6.0,98,0.00,,,0.01,weatherlink.com 1.10,2013-07-03 14:04:00,
2013-07-03 10:19:00,74.9,74.0,30.18,ESE,105,1.0,7.0,98,0.00,,,0.01,weatherlink.com 1.10,2013-07-03 14:19:00,
2013-07-03 10:34:00,74.9,74.0,30.19,SE,142,2.0,6.0,98,0.00,,,0.01,weatherlink.com 1.10,2013-07-03 14:34:00,
2013-07-03 10:49:00,75.1,74.0,30.19,SSW,195,3.0,6.0,97,0.00,,,0.01,weatherlink.com 1.10,2013-07-03 14:49:00,
2013-07-03 11:04:00,75.4,75.0,30.19,ESE,113,0.0,6.0,97,0.00,,,0.01,weatherlink.com 1.10,2013-07-03 15:04:00,
2013-07-03 11:19:00,76.9,75.0,30.18,ESE,117,4.0,6.0,94,0.00,,,0.01,weatherlink.com 1.10,2013-07-03 15:19:00,
2013-07-03 11:34:00,79.1,76.0,30.18,SSW,213,3.0,8.0,89,0.00,,,0.01,weatherlink.com 1.10,2013-07-03 15:34:00,
2013-07-03 12:04:00,79.6,75.0,30.18,WSW,250,1.0,7.0,85,0.00,,,0.01,weatherlink.com 1.10,2013-07-03 16:04:00,
2013-07-03 12:19:00,79.1,75.0,30.17,SSW,198,1.0,7.0,87,0.00,,,0.01,weatherlink.com 1.10,2013-07-03 16:19:00,
2013-07-03 12:49:00,78.9,74.0,30.16,SE,144,2.0,5.0,86,0.00,,,0.01,weatherlink.com 1.10,2013-07-03 16:49:00,
2013-07-03 13:04:00,78.8,76.0,30.16,South,190,2.0,4.0,90,0.00,,,0.01,weatherlink.com 1.10,2013-07-03 17:04:00,
2013-07-03 13:19:00,80.5,76.0,30.16,SE,140,2.0,7.0,85,0.00,,,0.01,weatherlink.com 1.10,2013-07-03 17:19:00,
2013-07-03 13:34:00,81.2,76.0,30.16,SSW,202,1.0,8.0,83,0.00,,,0.01,weatherlink.com 1.10,2013-07-03 17:34:00,
2013-07-03 13:49:00,79.4,75.0,30.16,SSE,148,3.0,7.0,87,0.00,,,0.01,weatherlink.com 1.10,2013-07-03 17:49:00,
2013-07-03 14:04:00,79.6,76.0,30.16,WSW,238,5.0,11.0,87,0.00,,,0.01,weatherlink.com 1.10,2013-07-03 18:04:00,
2013-07-03 14:20:00,77.8,73.0,30.18,SSE,149,2.0,9.0,86,0.10,,,0.11,weatherlink.com 1.10,2013-07-03 18:20:00,
2013-07-03 14:35:00,76.2,73.0,30.18,SE,135,3.0,9.0,89,0.24,,,0.25,weatherlink.com 1.10,2013-07-03 18:35:00,
2013-07-03 14:50:00,74.9,72.0,30.16,SSE,158,2.0,5.0,89,0.25,,,0.26,weatherlink.com 1.10,2013-07-03 18:50:00,
2013-07-03 15:05:00,74.0,71.0,30.16,South,182,2.0,5.0,90,0.25,,,0.26,weatherlink.com 1.10,2013-07-03 19:05:00,
2013-07-03 15:20:00,73.2,71.0,30.17,SE,142,0.0,4.0,91,0.13,,,0.26,weatherlink.com 1.10,2013-07-03 19:20:00,
2013-07-03 15:35:00,72.7,70.0,30.16,SSW,205,0.0,5.0,92,0.02,,,0.27,weatherlink.com 1.10,2013-07-03 19:35:00,
2013-07-03 16:05:00,72.1,70.0,30.16,SSW,193,0.0,3.0,94,0.06,,,0.32,weatherlink.com 1.10,2013-07-03 20:05:00,
2013-07-03 16:20:00,72.0,71.0,30.16,SSW,193,0.0,2.0,95,0.06,,,0.32,weatherlink.com 1.10,2013-07-03 20:20:00,
2013-07-03 16:35:00,72.1,71.0,30.16,SSW,205,0.0,4.0,95,0.06,,,0.33,weatherlink.com 1.10,2013-07-03 20:35:00,
2013-07-03 16:50:00,72.5,71.0,30.15,SSW,198,0.0,3.0,96,0.03,,,0.33,weatherlink.com 1.10,2013-07-03 20:50:00,
2013-07-03 17:05:00,73.3,72.0,30.16,ESE,113,1.0,3.0,97,0.01,,,0.33,weatherlink.com 1.10,2013-07-03 21:05:00,
2013-07-03 17:20:00,73.9,73.0,30.16,South,175,0.0,5.0,97,0.01,,,0.33,weatherlink.com 1.10,2013-07-03 21:20:00,
2013-07-03 17:35:00,74.4,74.0,30.15,East,90,0.0,3.0,97,0.00,,,0.33,weatherlink.com 1.10,2013-07-03 21:35:00,
2013-07-03 17:50:00,74.5,74.0,30.15,East,97,1.0,3.0,97,0.00,,,0.33,weatherlink.com 1.10,2013-07-03 21:50:00,
2013-07-03 18:20:00,75.8,75.0,30.15,SE,137,0.0,4.0,97,0.00,,,0.33,weatherlink.com 1.10,2013-07-03 22:20:00,
2013-07-03 18:35:00,75.7,75.0,30.16,ESE,105,0.0,5.0,96,0.00,,,0.33,weatherlink.com 1.10,2013-07-03 22:35:00,
2013-07-03 18:50:00,75.9,74.0,30.16,SE,141,2.0,4.0,95,0.00,,,0.33,weatherlink.com 1.10,2013-07-03 22:50:00,
2013-07-03 19:05:00,76.0,75.0,30.16,East,79,0.0,6.0,95,0.00,,,0.33,weatherlink.com 1.10,2013-07-03 23:05:00,
2013-07-03 19:20:00,76.0,75.0,30.16,SE,146,0.0,6.0,95,0.00,,,0.33,weatherlink.com 1.10,2013-07-03 23:20:00,
2013-07-03 19:35:00,75.9,74.0,30.16,SSE,152,0.0,2.0,95,0.00,,,0.33,weatherlink.com 1.10,2013-07-03 23:35:00,
2013-07-03 19:50:00,75.6,74.0,30.17,SE,130,0.0,3.0,95,0.00,,,0.33,weatherlink.com 1.10,2013-07-03 23:50:00,
2013-07-03 20:20:00,75.3,74.0,30.16,SE,142,0.0,2.0,95,0.00,,,0.33,weatherlink.com 1.10,2013-07-04 00:20:00,
2013-07-03 20:35:00,75.0,74.0,30.17,SE,142,0.0,1.0,95,0.00,,,0.33,weatherlink.com 1.10,2013-07-04 00:35:00,
2013-07-03 21:05:00,74.4,73.0,30.17,SSE,148,0.0,4.0,95,0.11,,,0.44,weatherlink.com 1.10,2013-07-04 01:05:00,
2013-07-03 21:20:00,74.0,73.0,30.17,ESE,111,0.0,3.0,95,0.11,,,0.44,weatherlink.com 1.10,2013-07-04 01:20:00,
2013-07-03 21:35:00,73.7,72.0,30.18,SE,135,0.0,3.0,95,0.27,,,0.60,weatherlink.com 1.10,2013-07-04 01:35:00,
2013-07-03 21:50:00,73.4,72.0,30.19,South,172,0.0,4.0,96,0.17,,,0.61,weatherlink.com 1.10,2013-07-04 01:50:00,
2013-07-03 22:20:00,73.0,72.0,30.19,ENE,61,1.0,5.0,96,0.17,,,0.61,weatherlink.com 1.10,2013-07-04 02:20:00,
2013-07-03 22:35:00,72.9,72.0,30.19,SSE,163,1.0,6.0,96,0.00,,,0.61,weatherlink.com 1.10,2013-07-04 02:35:00,
2013-07-03 22:50:00,72.7,72.0,30.19,SSE,155,3.0,7.0,96,0.00,,,0.61,weatherlink.com 1.10,2013-07-04 02:50:00,
2013-07-03 23:05:00,72.6,72.0,30.19,SSE,166,0.0,4.0,97,0.00,,,0.61,weatherlink.com 1.10,2013-07-04 03:05:00,
2013-07-03 23:35:00,72.3,71.0,30.19,SE,130,0.0,4.0,97,0.00,,,0.61,weatherlink.com 1.10,2013-07-04 03:35:00,